Location: Gellin
(53.4498°N, 14.3207°E)
Time: 23:14:44
(UTC+00:00)

CSL-04 Rocket - Pass Details

Date: 03 March 2021
Orbit: 805 x 861 km, 98.9° (Epoch: 12 April)

Event Time Altitude Azimuth Distance (km) Brightness Sun altitude
Rises 18:22:59 0° 174° (S) 3,426 6.7 -15.4°
Reaches altitude 10° 18:25:24 10° 179° (S) 2,491 6.0 -15.7°
Maximum altitude 18:30:51 59° 258° (WSW) 989 4.3 -16.5°
Drops below altitude 10° 18:36:19 10° 338° (NNW) 2,484 6.6 -17.3°
Sets 18:38:43 0° 342° (NNW) 3,415 7.3 -17.7°
